Regional Weather Roundup
Issued by NWS

Home | Current Version | Previous Version | Graphics & Text | Print | Product List | Glossary On
Versions: 1 2 3 4 5 6 7 8 9 10 11 12 13 14 15 16 17 18 19 20 21 22 23 24 25 26 27 28 29 30 31 32 33 34 35 36 37 38 39 40 41 42 43 44 45 46 47 48 49 50
000
ASUS43 KIND 230009
RWRIN

WEATHER ROUNDUP FOR INDIANA
NATIONAL WEATHER SERVICE INDIANAPOLIS IN
800 PM EDT TUE AUG 22 2017

NOTE: "FAIR" INDICATES FEW OR NO CLOUDS BELOW 12,000 FEET WITH NO
SIGNIFICANT WEATHER AND/OR OBSTRUCTIONS TO VISIBILITY.

* - STATION DOES NOT REPORT WEATHER SUCH AS PRECIPITATION OR FOG.

+ - STATION NOT QUALITY CONTROLLED BY THE NATIONAL WEATHER SERVICE.
    USE DATA WITH CAUTION...ESPECIALLY DEWPOINT AND RELATIVE
    HUMIDITY OBSERVATIONS.

INZ001>003-010>013-019-020-230100-
NORTHWEST INDIANA

CITY           SKY/WX    TMP DP  RH WIND       PRES   REMARKS
GARY /AIRPORT/ PTCLDY    77  46  33 NW14      29.93R
KNOX *+        PTCLDY    70  59  68 N8        29.93R
LA PORTE +     CLEAR     71  59  65 N8        29.94S
6HR MIN TEMP:  71; 6HR MAX TEMP:  77;

MICHIGAN CITY+ PTCLDY    70  59  68 N7        29.94S
MONTICELLO +   CLEAR     72  63  72 W6        29.92S
6HR MIN TEMP:  74; 6HR MAX TEMP:  79;

RENSSELAER +   CLEAR     72  52  49 W8        29.93S
VALPARAISO     CLEAR     72  61  68 N6        29.93S
6HR MIN TEMP:  72; 6HR MAX TEMP:  81;


$$

LMZ046-743>745-230100-
SOUTHERN LAKE MICHIGAN

STATION/POSITION TIME  TEMP    WIND        PRES    WAVE
                       AIR SEA DIR/SP/G            HT
                 (UTC) (F)     (DEG/KT/KT) (MB)    (FT)
BURNS HARBOR     2340   75     350/ 17/ 21 1013.5S
MICHIGAN CITY    2340   73     350/ 17/ 20   N/A
5NW MICH CITY    2350   74 74  360/ 14/ 19   N/A     3

$$

INZ004-005-014>016-021>024-230100-
NORTH CENTRAL INDIANA

CITY           SKY/WX    TMP DP  RH WIND       PRES   REMARKS
ELKHART        PTCLDY    72  57  60 NW7       29.93R
GOSHEN         CLEAR     71  55  56 NW14G23   29.92R
6HR MIN TEMP:  71; 6HR MAX TEMP:  79;

LOGANSPORT +   CLEAR     72  63  73 W6        29.93R
PERU/GRISSOM   CLEAR     74  63  69 W10       29.91R
6HR MIN TEMP:  74; 6HR MAX TEMP:  80;

ROCHESTER +    CLEAR     73  61  64 N8        29.92S
SOUTH BEND     CLEAR     70  59  68 N14       29.93R
6HR MIN TEMP:  68; 6HR MAX TEMP:  77; 6HR PCP:  0.03;

WARSAW +       CLEAR     70  59  68 N7        29.92R

$$

INZ006>009-017-018-025>027-230100-
NORTHEAST INDIANA

CITY           SKY/WX    TMP DP  RH WIND       PRES   REMARKS
AUBURN +       PTCLDY    72  57  60 NW10G17   29.91R
FORT WAYNE     PTCLDY    73  59  61 NW6       29.90R
6HR MIN TEMP:  73; 6HR MAX TEMP:  79; 6HR PCP: TRACE;

HUNTINGTON +   CLEAR     72  61  67 NW3       29.91R
6HR MIN TEMP:  72; 6HR MAX TEMP:  79;


$$

INZ028-029-035-036-043>045-051>053-230100-
WEST CENTRAL INDIANA

CITY           SKY/WX    TMP DP  RH WIND       PRES   REMARKS
GREENCASTLE +  MOCLDY    73  63  68 NW8       29.95R
LAFAYETTE      PTCLDY    71  63  75 W6        29.93S
6HR MIN TEMP:  71; 6HR MAX TEMP:  79;

TERRE HAUTE    MOCLDY    77  63  61 N10G18    29.95R
6HR MIN TEMP:  74; 6HR MAX TEMP:  82;


$$

INZ030>032-037>040-046>048-054>057-064-065-230100-
CENTRAL INDIANA

CITY           SKY/WX    TMP DP  RH WIND       PRES   REMARKS
CP ATTERBURY + PTCLDY    77  64  65 W5        29.93S
FRANKFORT +    PTCLDY    75  65  69 NW5       29.96R
6HR MIN TEMP:  75; 6HR MAX TEMP:  82;

GREENWOOD *+   CLEAR    N/A N/A N/A NW8       29.93S
INDIANAPOLIS   PTCLDY    76  64  66 NW17      29.93R
6HR MIN TEMP:  75; 6HR MAX TEMP:  82;

-EAGLE CREEK   CLEAR     76  63  64 NW15      29.93R
6HR MIN TEMP:  75; 6HR MAX TEMP:  82; 6HR PCP: TRACE;

KOKOMO +       CLEAR     73  64  73 W9        29.93R
6HR MIN TEMP:  73; 6HR MAX TEMP:  78;

MARION +       CLEAR     72  63  73 NW6       29.92R
MT COMFORT *+  PTCLDY    75  64  69 NW15      29.92S
SHELBYVILLE    PTCLDY    77  64  64 NW7       29.91S
6HR MIN TEMP:  76; 6HR MAX TEMP:  82;

ZIONSVILLE +   CLEAR     72  62  71 NW9G16    29.95R
6HR MIN TEMP:  72; 6HR MAX TEMP:  79;


$$

INZ033-034-041-042-049-050-058-059-230100-
EAST CENTRAL INDIANA

CITY           SKY/WX    TMP DP  RH WIND       PRES   REMARKS
MUNCIE         PTCLDY    77  64  64 NW12G20   29.91R
6HR MIN TEMP:  77; 6HR MAX TEMP:  81;

RICHMOND +     PTCLDY    73  64  73 NW9       29.93R

$$

INZ060-061-067>069-081>083-085>088-230100-
SOUTHWEST INDIANA

CITY           SKY/WX    TMP DP  RH WIND       PRES   REMARKS
EVANSVILLE     PTCLDY    79  68  69 NW6       29.95F
6HR MIN TEMP:  75; 6HR MAX TEMP:  83; 6HR PCP:  0.18;

HUNTINGBURG +  CLOUDY    78  69  73 NW6       29.94S
6HR MIN TEMP:  73; 6HR MAX TEMP:  83; 6HR PCP:  0.03;

WASHINGTON +   CLEAR     77  64  63 MISG      29.94S
6HR MIN TEMP:  74; 6HR MAX TEMP:  82; 6HR PCP:  0.01;


$$

INZ062-063-066-070>080-084-089>092-230100-
SOUTH CENTRAL AND SOUTHEAST INDIANA

CITY           SKY/WX    TMP DP  RH WIND       PRES   REMARKS
BLOOMINGTON    CLEAR     77  63  61 NW7       29.94R
6HR MIN TEMP:  74; 6HR MAX TEMP:  82;

MADISON *+     PTCLDY    73  70  88 CALM      29.95S
NORTH VERNON + MOCLDY    77  68  73 W3        29.93S
SEYMOUR +      CLOUDY    81  66  61 W3        29.92F

$$





USA.gov is the U.S. government's official web portal to all federal, state and local government web resources and services.